Weather History for Mosby, MO

Change the Weather History Date:

Thursday, December 13, 2012

  Actual Average (KMKC) Record (KMKC)
Temperature  
Mean Temperature 42 °F -  
Max Temperature 55 °F 41 °F 61 °F (2006)
Min Temperature 28 °F 26 °F 6 °F (2010)
Degree Days  
Heating Degree Days 24    
Moisture  
Dew Point 20 °F    
Average Humidity 47    
Maximum Humidity 80    
Minimum Humidity 28    
Precipitation  
Precipitation 0.00 in - - ()
Sea Level Pressure  
Sea Level Pressure 30.12 in    
Wind  
Wind Speed 7 mph (South)    
Max Wind Speed 16 mph    
Max Gust Speed 22 mph    
Visibility 10 miles    
Events      
Averages and records for this station are not official NWS values.
T = Trace of Precipitation, MM = Missing Value Source: NWS Daily Summary

Daily Weather History Graph

Daily Weather History Graph

Search for Another Location

Airport:

Trip Planner

Search our weather history database for the weather conditions in past years. The results will help you decide how hot, cold, wet, or windy it might be!

Date:

Astronomy

Dec. 13, 2012 Rise Set
Actual Time 7:28 AM CST 4:54 PM CST
Civil Twilight 6:58 AM CST 5:24 PM CST
Nautical Twilight 6:25 AM CST 5:58 PM CST
Astronomical Twilight 5:52 AM CST 6:30 PM CST
Moon 7:38 AM CST (12/13) 5:37 PM CST (12/13)
Length of Visible Light 10h 25m
Length of Day
9h 25m
New Moon, 0% of the Moon is Illuminated
Dec 13
New Moon
Dec 19
First Quarter
Dec 28
Full
Jan 4
Last Quarter
Jan 11
New

Hourly Weather History & Observations

Time (CST) Temp. Windchill Dew Point Humidity Pressure Visibility Wind Dir Wind Speed Gust Speed Precip Events Conditions
12:15 AM 39.2 °F 34.2 °F 15.8 °F 39% 30.15 in 10.0 mi South 6.9 mph - N/A   Clear
12:35 AM 39.2 °F 33.6 °F 15.8 °F 39% 30.15 in 10.0 mi South 8.1 mph - N/A   Clear
12:55 AM 37.4 °F 32.8 °F 15.8 °F 41% 30.15 in 10.0 mi South 5.8 mph - N/A   Clear
1:15 AM 37.4 °F 30.8 °F 15.8 °F 41% 30.15 in 10.0 mi South 9.2 mph - N/A   Clear
1:35 AM 39.2 °F 32.0 °F 15.8 °F 39% 30.14 in 10.0 mi South 11.5 mph 17.3 mph N/A   Clear
1:55 AM 39.2 °F 33.0 °F 15.8 °F 39% 30.15 in 10.0 mi South 9.2 mph 18.4 mph N/A   Unknown
2:15 AM 39.2 °F 32.5 °F 15.8 °F 39% 30.15 in 10.0 mi South 10.4 mph 17.3 mph N/A   Unknown
2:35 AM 37.4 °F 31.4 °F 15.8 °F 41% 30.15 in 10.0 mi South 8.1 mph - N/A   Clear
2:55 AM 37.4 °F 32.1 °F 17.6 °F 45% 30.15 in 10.0 mi SSE 6.9 mph - N/A   Clear
3:15 AM 37.4 °F 32.1 °F 17.6 °F 45% 30.15 in 10.0 mi South 6.9 mph - N/A   Clear
3:35 AM 37.4 °F 31.4 °F 17.6 °F 45% 30.14 in 10.0 mi SSE 8.1 mph - N/A   Clear
3:55 AM 37.4 °F 32.8 °F 17.6 °F 45% 30.13 in 10.0 mi SSE 5.8 mph - N/A   Clear
4:15 AM 37.4 °F 31.4 °F 17.6 °F 45% 30.13 in 10.0 mi SSE 8.1 mph - N/A   Clear
4:35 AM 37.4 °F 32.1 °F 17.6 °F 45% 30.12 in 10.0 mi SSE 6.9 mph - N/A   Clear
4:55 AM 37.4 °F 32.8 °F 17.6 °F 45% 30.13 in 10.0 mi SSE 5.8 mph - N/A   Clear
5:15 AM 35.6 °F 29.2 °F 17.6 °F 48% 30.12 in 10.0 mi SE 8.1 mph - N/A   Clear
5:35 AM 35.6 °F 29.2 °F 17.6 °F 48% 30.12 in 10.0 mi SE 8.1 mph - N/A   Clear
5:55 AM 35.6 °F 30.7 °F 17.6 °F 48% 30.12 in 10.0 mi SSE 5.8 mph - N/A   Clear
6:15 AM 35.6 °F 31.7 °F 17.6 °F 48% 30.12 in 10.0 mi SSE 4.6 mph - N/A   Clear
6:35 AM 35.6 °F 31.7 °F 17.6 °F 48% 30.13 in 10.0 mi SSE 4.6 mph - N/A   Clear
6:55 AM 35.6 °F 29.9 °F 19.4 °F 52% 30.13 in 10.0 mi SSE 6.9 mph - N/A   Clear
7:15 AM 35.6 °F 29.9 °F 19.4 °F 52% 30.13 in 10.0 mi SSE 6.9 mph - N/A   Clear
7:35 AM 35.6 °F 29.2 °F 19.4 °F 52% 30.13 in 10.0 mi SSE 8.1 mph - N/A   Clear
7:55 AM 35.6 °F 29.9 °F 19.4 °F 52% 30.13 in 10.0 mi SSE 6.9 mph - N/A   Clear
8:15 AM 35.6 °F 29.2 °F 19.4 °F 52% 30.13 in 10.0 mi SSE 8.1 mph - N/A   Clear
8:35 AM 37.4 °F 32.8 °F 19.4 °F 48% 30.13 in 10.0 mi SSE 5.8 mph - N/A   Clear
8:55 AM 37.4 °F 31.4 °F 19.4 °F 48% 30.14 in 10.0 mi South 8.1 mph - N/A   Clear
9:15 AM 39.2 °F 34.2 °F 19.4 °F 45% 30.14 in 10.0 mi South 6.9 mph - N/A   Clear
9:55 AM 41.0 °F 37.1 °F 19.4 °F 42% 30.15 in 10.0 mi South 5.8 mph - N/A   Clear
10:15 AM 42.8 °F 37.0 °F 19.4 °F 39% 30.15 in 10.0 mi SSW 10.4 mph - N/A   Clear
10:35 AM 44.6 °F 38.1 °F 21.2 °F 39% 30.15 in 10.0 mi SW 13.8 mph - N/A   Clear
10:55 AM 48.2 °F - 21.2 °F 34% 30.14 in 10.0 mi SSW 16.1 mph - N/A   Clear
11:15 AM 48.2 °F - 21.2 °F 34% 30.14 in 10.0 mi SW 12.7 mph - N/A   Clear
11:35 AM 50.0 °F - 21.2 °F 32% 30.14 in 10.0 mi SSW 13.8 mph 19.6 mph N/A   Clear
11:55 AM 50.0 °F - 21.2 °F 32% 30.13 in 10.0 mi SW 12.7 mph - N/A   Clear
12:15 PM 51.8 °F - 21.2 °F 30% 30.12 in 10.0 mi South 11.5 mph 18.4 mph N/A   Clear
12:35 PM 51.8 °F - 21.2 °F 30% 30.11 in 10.0 mi SSW 11.5 mph 17.3 mph N/A   Clear
12:55 PM 51.8 °F - 21.2 °F 30% 30.11 in 10.0 mi SSW 12.7 mph - N/A   Clear
1:15 PM 53.6 °F - 23.0 °F 30% 30.10 in 10.0 mi SSW 9.2 mph 19.6 mph N/A   Clear
1:35 PM 53.6 °F - 21.2 °F 28% 30.09 in 10.0 mi SSW 9.2 mph - N/A   Unknown
1:55 PM 53.6 °F - 23.0 °F 30% 30.08 in 10.0 mi South 15.0 mph 19.6 mph N/A   Clear
2:15 PM 55.4 °F - 23.0 °F 29% 30.08 in 10.0 mi SSW 11.5 mph 21.9 mph N/A   Clear
2:35 PM 55.4 °F - 23.0 °F 29% 30.08 in 10.0 mi SSW 11.5 mph - N/A   Clear
2:55 PM 55.4 °F - 23.0 °F 29% 30.07 in 10.0 mi SSW 10.4 mph - N/A   Clear
3:15 PM 55.4 °F - 23.0 °F 29% 30.07 in 10.0 mi SSW 8.1 mph - N/A   Clear
3:35 PM 55.4 °F - 23.0 °F 29% 30.07 in 10.0 mi SSW 10.4 mph - N/A   Clear
3:55 PM 55.4 °F - 23.0 °F 29% 30.07 in 10.0 mi SSW 8.1 mph - N/A   Clear
4:35 PM 55.4 °F - 24.8 °F 31% 30.07 in 10.0 mi Calm Calm - N/A   Clear
5:35 PM 50.0 °F - 24.8 °F 37% 30.07 in 10.0 mi SSE 3.5 mph - N/A   Clear
7:15 PM 35.6 °F - 24.8 °F 65% 30.10 in 10.0 mi Calm Calm - N/A   Unknown
7:35 PM 35.6 °F - 24.8 °F 65% 30.10 in 10.0 mi Calm Calm - N/A   Clear
7:55 PM 33.8 °F - 24.8 °F 70% 30.10 in 10.0 mi Calm Calm - N/A   Clear
8:15 PM 32.0 °F - 24.8 °F 75% 30.10 in 10.0 mi Calm Calm - N/A   Clear
8:35 PM 32.0 °F - 23.0 °F 69% 30.10 in 10.0 mi Calm Calm - N/A   Clear
8:55 PM 32.0 °F - 23.0 °F 69% 30.11 in 10.0 mi Calm Calm - N/A   Clear
9:15 PM 32.0 °F - 23.0 °F 69% 30.11 in 10.0 mi Calm Calm - N/A   Clear
9:35 PM 30.2 °F - 23.0 °F 75% 30.11 in 10.0 mi Calm Calm - N/A   Clear
9:55 PM 30.2 °F - 23.0 °F 75% 30.12 in 10.0 mi Calm Calm - N/A   Clear
10:15 PM 30.2 °F - 23.0 °F 75% 30.11 in 10.0 mi Calm Calm - N/A   Unknown
10:35 PM 30.2 °F - 23.0 °F 75% 30.12 in 10.0 mi Calm Calm - N/A   Clear
10:55 PM 30.2 °F - 23.0 °F 75% 30.12 in 10.0 mi Calm Calm - N/A   Clear
11:15 PM 28.4 °F - 23.0 °F 80% 30.12 in 10.0 mi Calm Calm - N/A   Clear
11:35 PM 28.4 °F - 23.0 °F 80% 30.12 in 10.0 mi Calm Calm - N/A   Clear